Location: Street
(51.1247°N, 2.7429°W)
Time: 05:48:29
(UTC+01:00)

CAS-6 - Pass Details

Date: 29 March 2023
Orbit: 610 x 632 km, 97.9° (Epoch: 29 May)

Event Time Altitude Azimuth Distance (km) Brightness Sun altitude
Exits shadow 21:43:47 14° 56° (NE) 1,721 ? -19.2°
Drops below altitude 10° 21:46:07 10° 23° (NNE) 2,006 ? -19.5°
Sets 21:49:12 0° 360° (N) 2,923 ? -19.9°
